Showing default

COSMOS 2531, 43752

Orbit data source: Space-Track

COSMOS 2531, 43752 is a payload satellite owned by VVKO VKS (CIS) in LEO that was launched on Fri, 30 Nov 2018 UTC via an ROKOT launch vehicle from the Plesetsk Missile And Space Complex (PKMTR). Payload-class satellites include a variety of spacecraft equipped with specific instruments for various scientific and technological missions. These include communications satellites like Starlink; space stations such as the ISS; scientific satellites like the Hubble; Earth observation satellites from companies like Planet Labs, Umbra, and HawkEye 360; GPS; miniature CubeSats for education and research; and military/defense satellites.

Loading next visibility...
Identifier
43752, 2018-097B
Orbit
LEO
Last TLE update
8 hours ago
Origin
Manufacturer
Resehetnev ISS
Mission
Operational Defense Communications
Bus & Motor
STRELA-3M, Unknown motor
Mass
280 kg wet, 280 kg dry
Launch date (UTC)
2018-11-30 (7 years ago)
Launch vehicle
ROKOT
Launch site
Plesetsk Missile And Space Complex (PKMTR)
Object type
Payload
Rocket body
Debris
Shape & HBR
Cyl + 1 Ant, 7 m
Radar Cross Section
1.583 m², Large (>1 m²)

Expand to show TLE details & history

TLE from 8 hours ago
0 COSMOS 2531
1 43752U 18097B   25183.88172783  .00000025  00000-0  11128-3 0  9992
2 43752  82.5185  80.0480 0017524  94.2934 266.0148 12.42860429298916
Epoch: 2025-07-02T21:09Z
TLE epoch observation values (Epoch: 2025-07-02T21:09:41.284Z)
Latitude
-0.00008°
Longitude
-158.53049°
Altitude
1,498.184 km
Speed
7.115 km/s
True Right ascension
05h 20m 11s
True Declination
0° 00' 00"
Sunlit
Object was in daylight at epoch
Visualization orbit readout
Latitude
46.34152°
Longitude
-150.86533°
Altitude
1,492.045 km
Speed
7.126 km/s
Apparent Right ascension
05h 23m 50s
Apparent Declination
8° 51' 52"
Sunlit
Object is in daylight
Visualization observer readout
Local Sidereal Time
16:53:49
Azimuth
350.197° N
Elevation
-40.727°
Doppler factor
1
Orbital elements
Apogee altitude
1,505.643 km
Perigee altitude
1,478.06 km
Semi-major axis
7,869.988 km
Eccentricity
0.00175
Inclination
82.5185°
RAAN
80.048°
Arg. of periapsis
94.2934°
True anomaly
Unknown
Mean anomaly
266.0148°
Eccentric anomaly
Unknown
Mean motion
3.10872 °/min
Orbital period
115.8 mins
BSTAR
0.00011128
Loading maneuver chart data...
Loading SW <> Apogee altitude chart data...
Loading historical data...
Loading historical data...
Loading historical data...
Loading historical data...
Loading historical data...
Loading historical data...
Loading historical data...
Other satellites on launch #97 in the year 2018 (2018-11-30 UTC)

COSMOS 2531 Visibility forecast

Observer location: undefined°, undefined°

Span
Click to sort rows by Start time (UTC) header in descending order
Start Az.
Max El. time (UTC)
Max El. Az.
Max El.
End time (UTC)
End Az.
16 mins2025-07-03 05:30:22.139Z344.906° N2025-07-03 05:38:22.139Z266.744° W41.389°2025-07-03 05:46:22.139Z191.551° SSW
12 mins2025-07-03 16:36:22.139Z134.606° SE2025-07-03 16:41:22.139Z89.535° E28.391°2025-07-03 16:48:22.139Z28.637° NE
15 mins2025-07-03 18:31:22.139Z212.304° SW2025-07-03 18:38:22.139Z287.568° WNW38.297°2025-07-03 18:46:22.139Z358.343° N
7 mins2025-07-04 02:47:22.139Z35.506° NE2025-07-04 02:50:22.139Z57.468° ENE14.31°2025-07-04 02:54:22.139Z86.782° E
15 mins2025-07-04 04:42:22.139Z356.943° N2025-07-04 04:49:22.139Z99.802° ESE44.165°2025-07-04 04:57:22.139Z167.462° S
|